#timestamp,LO_Frequency,Hit,StdDev 
1619895615.3,286047002.1,N
1619895635.1,286047001.6,N
1619895655.9,286047002.6,N
1619895675.7,286047000.3,N
1619895695.5,286047002.3,N
1619895715.4,286047000.8,N
1619895735.2,286047002.5,N
1619895755.1,286047005.5,N
1619895756.0,286047005.5,N
1619895775.8,286047005.8,N
1619895795.6,286047001.4,N
1619895815.5,286047000.4,N
1619895835.3,286047001.9,N
1619895855.2,286047000.0,N
1619895875.9,286047002.4,N
1619895895.7,286047003.9,N
1619895915.6,286047004.2,N
1619895935.4,286047003.2,N
1619895955.2,286047001.5,N
1619895975.1,286047002.4,N
1619895976.0,286047002.4,N
1619895995.8,286047001.9,N
1619896015.7,286046999.9,N
1619896035.5,286047004.0,N
1619896055.3,286047002.4,N
1619896075.2,286046998.5,N
1619896095.0,286047002.1,N
1619896095.9,286047002.1,N
1619896115.8,286047003.0,N
1619896135.6,286047003.2,N
1619896155.4,286047002.0,N
1619896175.3,286047002.0,N
1619896195.1,286047000.5,N
1619896215.8,286046999.9,N
1619896235.7,286046998.4,N
1619896255.5,286046998.7,N
1619896275.4,286047000.9,N
1619896295.2,286047000.7,N
1619896315.0,286046998.2,N
1619896315.9,286046998.2,N
1619896335.8,286047000.0,N
1619896355.6,286047002.1,N
1619896375.5,286046999.9,N
1619896395.3,286047000.7,N
1619896415.1,286047000.5,N
1619896435.9,286047000.1,N
1619896455.7,286047002.8,N
1619896475.6,286047002.1,N
1619896495.4,286047002.2,N
1619896515.2,286047004.3,N
1619896535.1,286047001.7,N
1619896536.0,286047001.7,N
1619896555.8,286047002.1,N
1619896575.6,286047000.5,N
1619896595.5,286047000.8,N
1619896615.3,286047001.0,N
1619896635.2,286047000.0,N
1619896655.9,286046998.3,N
1619896675.7,286046998.9,N
1619896695.6,286047002.7,N
1619896715.4,286047002.6,N
1619896735.2,286047003.8,N
1619896755.1,286047005.5,Y
1619896756.0,286047005.5,P
1619896775.8,286047002.3,N
1619896795.7,286047001.7,N
1619896815.5,286047000.4,N
1619896835.3,286047004.0,N
1619896855.2,286047003.3,N
1619896875.0,286047004.7,N
1619896875.9,286047004.7,N
1619896895.7,286047006.8,Y
1619896915.6,286047003.7,P
1619896935.4,286047003.5,P
1619896955.3,286047004.1,P
1619896975.1,286047002.5,Y
1619896995.8,286046999.5,P
1619897015.7,286046999.0,N
1619897035.5,286046996.7,N
1619897055.3,286046997.7,N
1619897075.2,286046995.8,N
1619897095.0,286046994.4,N
1619897095.9,286046994.4,N
1619897115.8,286046992.0,N
1619897135.6,286046992.5,N
1619897155.4,286046992.8,N
1619897175.3,286046996.0,N
1619897195.1,286046996.3,N
1619897215.9,286046996.1,N
1619897235.7,286046996.9,N
1619897255.5,286046999.6,N
1619897275.4,286046997.8,N
1619897295.2,286046994.4,N
1619897315.0,286046990.3,Y
1619897315.9,286046990.3,P
1619897335.8,286046994.6,N
1619897355.6,286046992.9,N
1619897375.5,286046993.7,N
1619897395.3,286046994.5,N
1619897415.1,286046994.7,N
1619897435.9,286046993.0,Y
1619897455.7,286047000.0,P
1619897475.5,286047004.0,N
1619897495.4,286047001.9,N
1619897515.2,286046999.7,N
1619897535.0,286047003.7,N
1619897536.0,286047003.7,N
1619897555.8,286047005.7,N
1619897575.6,286047003.4,N
1619897595.5,286047004.0,N
1619897615.3,286047006.0,N
1619897635.1,286047001.6,N
1619897655.9,286047000.4,N
1619897675.7,286046998.4,N
1619897695.5,286046996.5,N
1619897715.4,286047000.9,N
1619897735.2,286046999.7,N
1619897755.1,286047004.2,N
1619897756.0,286047004.2,N
1619897775.8,286047003.9,N
1619897795.6,286047001.4,N
1619897815.5,286047003.3,N
1619897835.3,286047003.2,N
1619897855.2,286047001.9,N
1619897875.9,286046998.2,N
1619897895.7,286046997.1,N
1619897915.6,286046997.7,N
1619897935.4,286046999.4,N
1619897955.3,286047001.0,N
1619897975.1,286047000.3,N
1619897995.8,286046999.9,N
1619898015.7,286047001.2,N
1619898035.7,286047001.1,N
1619898055.5,286047004.0,N
1619898075.4,286047003.2,N
1619898095.2,286047002.9,N
1619898115.1,286047003.8,N
1619898116.0,286047003.8,N
1619898135.8,286047001.3,N
1619898155.6,286047003.9,N
1619898175.5,286047001.6,N
1619898195.3,286047002.6,N
1619898215.1,286047000.0,N
1619898235.9,286047000.1,N
1619898255.7,286047000.9,N
1619898275.6,286047002.7,N
1619898295.4,286047005.5,N
1619898315.2,286047004.3,N
1619898335.1,286047003.7,N
1619898336.0,286047003.7,N
1619898355.8,286047003.7,N
1619898375.7,286047004.7,N
1619898395.5,286047007.3,Y
1619898415.4,286047001.7,P
1619898435.2,286047003.3,P
1619898455.0,286047003.3,P
1619898455.9,286047003.3,Y
1619898475.8,286047001.6,P
1619898495.6,286047002.3,P
1619898515.5,286047002.2,P
1619898535.3,286047002.4,Y
1619898555.1,286046999.3,P
1619898575.9,286046999.1,N
1619898595.7,286046995.0,P
1619898615.6,286046997.5,N
1619898635.4,286046997.9,N
1619898655.2,286046995.4,N
1619898675.1,286046993.5,N
1619898676.0,286046993.5,N
1619898695.8,286046995.2,N
1619898715.6,286046994.5,N
1619898735.5,286046997.4,N
1619898755.3,286046999.6,N
1619898775.2,286046997.5,N
1619898795.9,286046997.8,N
1619898815.7,286046996.9,N
1619898835.6,286046996.1,N
1619898855.4,286046997.0,N
1619898875.2,286046997.3,N
1619898895.1,286046997.2,N
1619898896.0,286046997.2,N
1619898915.8,286046996.9,N
1619898935.7,286046998.9,N
1619898955.5,286046996.5,N
1619898975.3,286046994.9,N
1619898995.2,286046999.1,N
1619899015.0,286046999.4,N
1619899015.9,286046999.4,N
1619899035.8,286046996.8,N
1619899055.6,286046997.7,N
1619899075.4,286046997.7,N
1619899095.3,286046997.0,N
1619899115.1,286046997.0,N
1619899135.9,286046997.3,N
1619899155.7,286046999.6,N
1619899175.5,286046999.2,N
1619899195.4,286046995.9,N
